Overview Statistics Trail Chart Weather Telemetry Raw packets
 

This is the latest recevied weather packets stored in our database for station/object Krauchnws. If no packets are shown the sender has not sent any weather packets the latest 10 day(s).

<< 1 2 3 4 >>
Time Temp. Humidity Pressure Rain* Wind** Luminosity Snow
1788598930 14.44° C 87% 1020.1 hPa 0.76 mm - - -
1788597131 16.11° C 82% 1019.9 hPa 0.51 mm - - -
1788595330 17.22° C 80% 1019.6 hPa 0.25 mm - - -
1788593530 17.22° C 85% 1019.2 hPa 0.25 mm - - -
1788591730 17.22° C 89% 1018.8 hPa 0.25 mm - - -
1788589930 16.67° C 90% 1018.7 hPa 0.25 mm - - -
1788588130 16.67° C 91% 1018.7 hPa 0.25 mm - - -
1788586329 17.22° C 88% 1018.1 hPa 0.25 mm - - -
1788584532 17.78° C 82% 1017.7 hPa 0 mm - - -
1788582730 18.89° C 76% 1017.2 hPa 0 mm - - -
1788580929 18.89° C 76% 1017.1 hPa 0 mm - - -
1788579130 19.44° C 75% 1016.6 hPa 0 mm - - -
1788577329 19.44° C 75% 1016.4 hPa 0 mm - - -
1788575529 18.33° C 77% 1016.1 hPa 0 mm - - -
1788573729 18.33° C 76% 1016 hPa 0 mm - - -
1788571929 18.33° C 74% 1015.8 hPa 0 mm - - -
1788570129 19.44° C 72% 1015.4 hPa 0 mm - - -
1788568332 18.89° C 73% 1015.5 hPa 0 mm - - -
1788566531 19.44° C 72% 1015.5 hPa 0 mm - - -
1788564731 19.44° C 70% 1015.3 hPa 0 mm - - -
1788562931 21.67° C 64% 1015.1 hPa 0 mm - - -
1788561131 21.67° C 63% 1014.9 hPa 0 mm - - -
1788557531 22.78° C 59% 1014.9 hPa 0 mm - - -
1788555731 22.78° C 58% 1014.8 hPa 0 mm - - -
1788553931 23.33° C 58% 1014.9 hPa 0 mm - - -

* Rain since midnight (hover to see other rain measurements)
** Current wind speed in m/s (hover to see current wind gust speed)